Location: Home
(42.5358°N, 72.7383°W)
Time: 14:42:32
(UTC-05:00)

Vanguard 1 - Pass Details

Date: 04 December 2021
Orbit: 652 x 3830 km, 34.2° (Epoch: 19 January)

Event Time Altitude Azimuth Distance (km) Brightness Sun altitude
Rises 23:48:59 0° 237° (WSW) 7,181 - -69.7°
Reaches altitude 10° 23:53:28 10° 234° (SW) 6,436 - -69.6°
Maximum altitude 00:15:21 60° 161° (SSE) 4,149 - -68.5°
Exits shadow 00:28:51 29° 97° (E) 5,006 13.5 -67.4°
Drops below altitude 10° 00:35:26 10° 89° (E) 5,989 14.1 -66.8°
Sets 00:39:24 0° 86° (E) 6,683 14.5 -66.4°
